Richardson's Hourly Summary for Wednesday, May 9, 2018
Hour Temp
(f)
RH
(%)
Solar Rad.
(MJ/m2)
Rainfall
(in)
Wind
(mph)
5/9/2018 12:00 AM 77 46 0 0 5.61
5/9/2018 1:00 AM 75 49 0 0 5.94
5/9/2018 2:00 AM 74 49 0 0 8.84
5/9/2018 3:00 AM 73 49 0 0 7.97
5/9/2018 4:00 AM 72 45 0 0 7.34
5/9/2018 5:00 AM 71 45 0 0 6.82
5/9/2018 6:00 AM 69 47 0 0 4.91
5/9/2018 7:00 AM 67 52 0.03 0 3.9
5/9/2018 8:00 AM 68 54 0.59 0 3.66
5/9/2018 9:00 AM 71 51 1.11 0 4.89
5/9/2018 10:00 AM 74 49 1.97 0 5.74
5/9/2018 11:00 AM 77 43 2.54 0 6.07
5/9/2018 12:00 PM 80 37 2.85 0 8.1
5/9/2018 1:00 PM 83 28 3.33 0 8.93
5/9/2018 2:00 PM 84 30 3.38 0 10.54
5/9/2018 3:00 PM 85 28 3.25 0 11.27
5/9/2018 4:00 PM 85 30 2.87 0 10.22
5/9/2018 5:00 PM 86 29 2.34 0 9.51
5/9/2018 6:00 PM 86 31 1.67 0 8.85
5/9/2018 7:00 PM 84 34 0.96 0 8.28
5/9/2018 8:00 PM 82 36 0.27 0 7.71
5/9/2018 9:00 PM 80 36 0.01 0 5.54
5/9/2018 10:00 PM 78 42 0 0 4.87
5/9/2018 11:00 PM 77 44 0 0 3.89
Data Summary 77 41 27.17 0.00 7.06